Regional Weather Roundup
Issued by NWS

Home | Current Version | Previous Version | Graphics & Text | Print | Product List | Glossary On
Versions: 1 2 3 4 5 6 7 8 9 10 11 12 13 14 15 16 17 18 19 20 21 22 23 24 25 26 27 28 29 30 31 32 33 34 35 36 37 38 39 40 41 42 43 44 45 46 47 48 49 50
000
ASUS43 KBIS 281659
RWRND

NORTH DAKOTA REGIONAL WEATHER ROUNDUP
NATIONAL WEATHER SERVICE BISMARCK ND
1100 AM CST SUN DEC 28 2014

NOTE: "FAIR" INDICATES FEW OR NO CLOUDS BELOW 12,000 FEET WITH NO
SIGNIFICANT WEATHER AND/OR OBSTRUCTIONS TO VISIBILITY.


NDZ001>003-009>011-017-281800-
NORTHWEST NORTH DAKOTA

CITY           SKY/WX    TMP DP  RH WIND       PRES   REMARKS
WILLISTON      CLOUDY    11   4  73 E10       30.16R WCI  -3
MINOT          CLOUDY    -3  -7  82 N7        30.24R WCI -16
$$

NDZ018>021-031>035-040>046-281800-
SOUTHWEST NORTH DAKOTA

CITY           SKY/WX    TMP DP  RH WIND       PRES   REMARKS
BISMARCK       CLOUDY    10   6  84 E14       30.19R WCI  -6
DICKINSON      CLOUDY    18  13  80 E13       30.03R HAZE    WCI   5
GARRISON         N/A      6   2  83 E12       30.18R WCI  -9
HETTINGER ARPT CLOUDY    17  14  88 E10       30.02R WCI   5
$$

NDZ004>008-012>016-024-026-027-054-281800-
NORTHEAST NORTH DAKOTA

CITY           SKY/WX    TMP DP  RH WIND       PRES   REMARKS
GRAND FORKS    SUNNY     -5 -11  75 N7        30.35R WCI -19
DEVILS LAKE    CLOUDY    -2  -9  71 NE5       30.27R WCI -12
$$

NDZ022-023-025-028>030-036>039-047>053-281800-
SOUTHEAST NORTH DAKOTA

CITY           SKY/WX    TMP DP  RH WIND       PRES   REMARKS
FARGO          SUNNY      1  -6  72 N14       30.30R WCI -17
JAMESTOWN      CLOUDY     3  -2  78 NE10      30.23R WCI -12
$$




USA.gov is the U.S. government's official web portal to all federal, state and local government web resources and services.